Regional Weather Roundup
Issued by NWS Upton, NY

Current Version | Previous Version | Graphics & Text | Print | Product List | Glossary Off
Versions: 1 2 3 4 5 6 7 8 9 10 11 12 13 14 15 16 17 18 19 20 21 22 23 24 25 26 27 28 29 30 31 32 33 34 35 36 37 38 39 40 41 42 43 44 45 46 47 48 49 50
000 ASUS41 KOKX 300818 RWROKX REGIONAL WEATHER ROUNDUP NATIONAL WEATHER SERVICE NEW YORK NY 400 AM EDT SAT MAY 30 2015 NOTE: "FAIR" INDICATES FEW OR NO CLOUDS BELOW 12,000 FEET WITH NO SIGNIFICANT WEATHER AND/OR OBSTRUCTIONS TO VISIBILITY. NYZ071-072-176-178-NJZ106-104-300900- NEW YORK CITY METRO AREA CITY SKY/WX TMP DP RH WIND PRES REMARKS CENTRAL PARK CLEAR 68 61 78 VRB3 30.22S LAGUARDIA APRT CLEAR 66 61 84 S6 30.19S KENNEDY INTL PTCLDY 64 61 90 S7 30.20F NEWARK/LIBERTY MOCLDY 66 62 87 S5 30.19S BRNX BOT. GARD N/A N/A N/A N/A CALM 30.20F TETERBORO CLEAR 66 60 81 CALM 30.18F $$ NYZ177-179-078>081-300900- LONG ISLAND NEW YORK CITY SKY/WX TMP DP RH WIND PRES REMARKS FARMINGDALE PTCLDY 64 62 93 CALM 30.20S ISLIP CLEAR 63 61 93 S5 30.19S SHIRLEY CLOUDY 63 61 93 S5 30.21F FOG WESTHAMPTON FOG 61 61 100 S3 30.22F VSB 1/4 MONTAUK POINT N/A 59 58 96 S3 30.23F $$ NYZ052-065-067-300900- HUDSON VALLEY CITY SKY/WX TMP DP RH WIND PRES REMARKS WHITE PLAINS CLEAR 60 59 96 CALM 30.19F FOG NEWBURGH CLOUDY 64 61 88 CALM 30.20S MONTGOMERY CLOUDY 60 59 96 CALM 30.18S POUGHKEEPSIE PTCLDY 63 57 81 CALM 30.17S ALBANY CLEAR 67 56 67 S6 30.14S $$ NJZ001-105-106-008-010-013-015-019>022-104-300900- NEW JERSEY CITY SKY/WX TMP DP RH WIND PRES REMARKS NEWARK/LIBERTY MOCLDY 66 62 87 S5 30.19S TETERBORO CLEAR 66 60 81 CALM 30.18F CALDWELL CLEAR 63 58 83 CALM 30.20S MORRISTOWN CLEAR 61 57 88 CALM 30.19S FOG SOMERVILLE PTCLDY 60 57 89 CALM 30.18S SUSSEX PTCLDY 62 57 83 CALM 30.20S ANDOVER N/A 64 60 87 SW3 30.19S TRENTON PTCLDY 66 63 90 SW3 30.19S MILLVILLE FOG 64 63 96 CALM 30.21S VSB 1 ATLANTIC CITY PTCLDY 67 64 90 S5 30.21S WRIGHTSTOWN CLOUDY 61 61 100 SE1 30.18S TOMS RIVER PTCLDY N/A N/A N/A CALM 30.21S BELMAR PTCLDY 63 57 82 S5 30.21F $$ PAZ047>061-062-071-300900- EASTERN PENNSYLVANIA CITY SKY/WX TMP DP RH WIND PRES REMARKS PHILADELPHIA PTCLDY 70 65 84 S6 30.20S ALLENTOWN PTCLDY 70 63 78 S3 30.17F SCRANTON PTCLDY 70 64 81 N3 30.16S $$ CTZ002-004>006-009-010-012-RIZ004-006-007-MAZ004-011-015-300900- SOUTHERN NEW ENGLAND IN CT CITY SKY/WX TMP DP RH WIND PRES REMARKS BRADLEY INTL PTCLDY 61 57 87 S5 30.18F HARTFORD CLEAR 60 57 89 S6 30.19F DANBURY CLEAR 62 57 83 S6 30.21F WTRBRY/OXFORD CLEAR 61 54 77 S3 30.22F BRIDGEPORT CLEAR 62 61 96 CALM 30.20S MERIDEN FOG 60 58 92 S5 30.20S VSB 1/4 NEW HAVEN FOG 60 60 100 CALM 30.20F VSB 1/4 CHESTER FOG 57 57 100 S3 30.22S VSB<1/4 GROTON FOG 57 56 96 SE5 30.21S VSB 1/4 WILLIMANTIC CLOUDY 56 54 93 CALM 30.21S IN RI CITY SKY/WX TMP DP RH WIND PRES REMARKS PROVIDENCE FOG 56 55 97 S7 30.22S VSB 1/2 BLOCK ISLAND CLOUDY 57 54 88 SW9 30.23R VSB 1/2 WESTERLY FOG 56 56 100 S3 30.22S VSB 1/4 IN MA CITY SKY/WX TMP DP RH WIND PRES REMARKS BOSTON PTCLDY 60 56 86 S5 30.19F WORCESTER CLEAR 58 53 84 SW9 30.20F WESTFIELD CLEAR 60 57 89 S3 30.18F PROVINCETOWN CLOUDY 59 55 88 SW10 30.22R VSB 3/4 NANTUCKET CLOUDY 61 59 93 SW8 30.23F FOG $$ ANZ330-335-338-340-345-350-353-355-300900- COASTAL MARINE OBSERVATIONS STATION/POSITION TIME SKY/WX TEMP WIND PRES VSBY WAVE AIR SEA DIR/SP/G HT/PER (UTC) (F) (DEG/KT/KT) (MB) (MI) (FT/S) NY HARB ENTRANCE 0750 62 62 180/ 4/ 6 1022.5 2/ 9 4S FIRE IS 0703 60 N/A 2/ 8 20S FIRE ISLAND 0750 61 59 170/ 6/ 6 1022.8 2/ 9 GREAT SOUTH BAY 0715 63 69 190/ 6/ 8 N/A 23SW MTP 0750 56 56 180/ 2/ 4 1023.2 3/ 9 HUDSON CANYON NOT AVBL KINGS POINT 0700 64 60 180/ 5/ 7 1021.9 CENTRAL LI SOUND 0700 59 60 210/ 6/ 8 N/A EASTERN LI SOUND 0700 55 130/ 4/ 4 N/A ROBBINS REEF 0700 63 180/ 11/ 12 1021.3 $$ >>>>>>>>>>>>>>>>>>>>>>>>>>>> KEY <<<<<<<<<<<<<<<<<<<<<<<<<<< > < > SKY/WX - SKY CONDITION/PRESENT WEATHER < > TMP - TEMPERATURE IN FAHRENHEIT < > DP - DEWPOINT IN FAHRENHEIT < > RH - RELATIVE HUMIDITY IN PERCENT < > WIND - DIRECTION AND SPEED IN MPH < > PRES - MEAN SEA LEVEL PRESSURE IN INCHES OF HG < > WCI - WIND CHILL INDEX < > VSB - VISIBILITY IN MILES < > HX - HEAT INDEX < > TC - TEMPERATURE IN CELSIUS < > VRB - VARIABLE WIND DIRECTION < > < >>>>>>>>>>>>>>>>>>>>>>>>>>>> KEY <<<<<<<<<<<<<<<<<<<<<<<<<<<

USA.gov is the U.S. government's official web portal to all federal, state and local government web resources and services.